FW2726 Weather Reports


Display with metric or nautical units.
time (UTC)temp
F
wind
direction
speed
MPH
gust
MPH
rain 1hr
in
rain 24hr
in
rain mn
in
humidity
%
barometer
mb
20260901160108 64 209 5.0 9.0 0.00 0.00 0.00 73 1013.1
20260901154605 62 204 5.0 9.0 0.00 0.00 0.00 76 1013.2
20260901153114 60 188 4.0 7.0 0.00 0.00 0.00 87 1013.2
20260901151605 58 187 4.0 6.0 0.00 0.00 0.00 94 1013.2
20260901150108 56 191 4.0 7.0 0.00 0.00 0.00 96 1013.2
20260901144607 54 177 3.0 6.0 0.00 0.00 0.00 96 1013.0
20260901143107 52 202 3.0 5.0 0.00 0.00 0.00 96 1013.1
20260901141610 51 173 2.0 6.0 0.00 0.00 0.00 96 1013.0
20260901140107 49 182 4.0 6.0 0.00 0.00 0.00 96 1013.0
20260901134604 47 202 3.0 5.0 0.00 0.02 0.00 96 1012.9
20260901133105 46 214 3.0 6.0 0.00 0.02 0.00 95 1012.7
20260901131612 44 193 3.0 5.0 0.00 0.02 0.00 95 1012.6
20260901130106 44 193 4.0 5.0 0.00 0.02 0.00 95 1012.5
20260901124608 43 193 3.0 4.0 0.00 0.06 0.00 94 1012.4
20260901123106 43 193 4.0 5.0 0.00 0.06 0.00 94 1012.4
20260901121614 43 193 3.0 5.0 0.00 0.06 0.00 94 1012.3
20260901120124 43 193 3.0 4.0 0.00 0.06 0.00 94 1011.9
20260901114605 43 193 4.0 5.0 0.00 0.10 0.00 94 1012.0
20260901113104 43 193 2.0 3.0 0.00 0.10 0.00 93 1012.0
20260901111613 44 193 3.0 4.0 0.00 0.10 0.00 94 1012.0
20260901110105 45 193 4.0 5.0 0.00 0.10 0.00 94 1012.1
20260901104603 45 224 2.0 4.0 0.00 0.14 0.00 94 1012.0
20260901103129 45 224 3.0 4.0 0.00 0.14 0.00 94 1012.0
20260901101606 45 224 3.0 4.0 0.00 0.14 0.00 94 1011.9
20260901100106 45 224 2.0 4.0 0.00 0.14 0.00 93 1011.8
20260901094603 45 210 1.0 4.0 0.00 0.24 0.00 93 1011.7
20260901093129 45 199 2.0 4.0 0.00 0.24 0.00 93 1011.8
20260901091608 45 196 2.0 4.0 0.00 0.24 0.00 93 1011.9
20260901084605 46 196 3.0 5.0 0.00 0.28 0.00 93 1011.8
20260901083108 46 225 3.0 5.0 0.00 0.28 0.00 93 1011.8
20260901081615 46 244 2.0 3.0 0.00 0.28 0.00 93 1011.8
20260901080106 46 244 2.0 3.0 0.00 0.28 0.00 93 1011.6
20260901074606 46 244 2.0 3.0 0.00 0.28 0.00 92 1011.7
20260901073105 45 244 2.0 3.0 0.00 0.28 0.00 91 1011.7
20260901071608 46 0 0.0 0.0 0.00 0.28 0.00 91 1011.6
20260901070112 47 0 0.0 0.0 0.00 0.28 0.00 90 1011.5
20260901064608 48 0 1.0 2.0 0.00 0.60 0.00 90 1011.5
20260901063109 48 244 1.0 4.0 0.00 0.60 0.00 89 1011.4
20260901061608 49 244 2.0 3.0 0.00 0.60 0.00 89 1011.5
20260901060106 49 244 2.0 3.0 0.00 0.60 0.00 88 1011.4
20260901054607 50 244 2.0 4.0 0.00 0.95 0.60 88 1011.4
20260901053124 50 258 2.0 4.0 0.00 0.95 0.60 89 1011.1
20260901051604 50 258 2.0 3.0 0.00 0.95 0.60 89 1011.0
20260901050108 50 258 2.0 4.0 0.00 0.95 0.60 88 1011.1
20260901044605 50 258 2.0 3.0 0.00 1.07 0.60 89 1011.1
20260901043136 50 258 2.0 3.0 0.00 1.07 0.60 89 1011.1
20260901041626 50 258 2.0 3.0 0.00 1.07 0.60 88 1011.0
20260901040127 51 258 2.0 4.0 0.00 1.07 0.60 87 1010.9
20260901034608 51 258 2.0 4.0 0.00 1.10 0.60 87 1010.8
20260901033126 52 258 2.0 3.0 0.00 1.10 0.60 86 1010.6
20260901031606 53 258 2.0 4.0 0.00 1.10 0.60 86 1010.5
20260901030124 53 258 2.0 4.0 0.00 1.10 0.60 84 1010.5
20260901024608 55 261 3.0 4.0 0.00 1.19 0.60 82 1010.4
20260901023105 57 278 2.0 4.0 0.00 1.19 0.60 80 1010.2
20260901021610 59 279 2.0 4.0 0.00 1.19 0.60 77 1009.9
20260901020129 60 319 1.0 3.0 0.00 1.19 0.60 76 1009.8
20260901014621 62 319 1.0 4.0 0.00 1.22 0.60 72 1009.7
20260901013118 64 329 2.0 3.0 0.00 1.22 0.60 69 1009.5
20260901011608 65 329 2.0 5.0 0.00 1.22 0.60 66 1009.5
20260901010109 67 359 4.0 11.0 0.00 1.22 0.60 62 1009.2
20260901004607 68 354 7.0 14.0 0.00 1.23 0.60 61 1009.1
20260901003105 68 14 6.0 15.0 0.00 1.23 0.60 61 1008.9
20260901001612 68 328 5.0 10.0 0.00 1.23 0.60 62 1008.8
20260901000108 68 310 9.0 16.0 0.00 1.23 0.60 62 1008.8
20260831234608 68 343 11.0 18.0 0.00 1.23 0.60 60 1008.8
20260831233105 68 8 10.0 17.0 0.00 1.23 0.60 63 1008.7
20260831231605 68 4 10.0 16.0 0.00 1.23 0.60 64 1008.6
20260831230108 68 4 10.0 17.0 0.00 1.23 0.60 65 1008.5
20260831224607 68 336 11.0 18.0 0.00 1.23 0.60 65 1008.3
20260831223109 68 354 11.0 20.0 0.00 1.23 0.60 66 1008.2
20260831221609 68 4 10.0 23.0 0.00 1.23 0.60 67 1008.2
20260831220135 67 335 13.0 22.0 0.00 1.23 0.60 68 1008.1
20260831214606 66 317 16.0 25.0 0.00 1.24 0.60 70 1008.1
20260831213108 65 4 14.0 19.0 0.00 1.24 0.60 73 1008.1
20260831211605 64 342 14.0 21.0 0.00 1.24 0.60 75 1008.2
20260831210106 63 339 15.0 23.0 0.00 1.24 0.60 77 1008.1
20260831204605 62 23 15.0 24.0 0.00 1.25 0.60 78 1008.2
20260831203135 62 346 13.0 22.0 0.00 1.25 0.60 79 1008.0
20260831201610 63 337 12.0 23.0 0.00 1.25 0.60 80 1007.8
20260831200107 63 344 13.0 21.0 0.00 1.25 0.60 80 1007.7
20260831194611 63 336 13.0 23.0 0.00 1.25 0.60 81 1007.4
20260831193107 63 349 14.0 23.0 0.00 1.25 0.60 82 1007.3
20260831191606 62 343 13.0 22.0 0.00 1.25 0.60 85 1007.2
20260831190140 62 326 13.0 20.0 0.00 1.25 0.60 85 1006.9
20260831184610 61 332 14.0 21.0 0.00 1.25 0.60 89 1006.9
20260831183115 60 321 12.0 21.0 0.00 1.25 0.60 90 1006.7
20260831181606 60 324 14.0 21.0 0.00 1.25 0.60 91 1006.5
20260831180108 60 313 12.0 23.0 0.00 1.25 0.60 93 1006.3
20260831174605 59 322 9.0 20.0 0.00 1.25 0.60 94 1006.1
20260831173111 59 338 12.0 21.0 0.00 1.25 0.60 95 1005.9
20260831171608 59 330 13.0 21.0 0.00 1.25 0.60 95 1005.7
20260831170112 58 10 11.0 23.0 0.00 1.25 0.60 95 1005.4
20260831164607 58 318 11.0 21.0 0.00 1.25 0.60 96 1005.1
20260831163108 58 320 9.0 19.0 0.00 1.25 0.60 96 1004.8
20260831161608 57 329 10.0 17.0 0.00 1.25 0.60 96 1004.7